This demonstration page uses our WeatherBlox Daily Observations layout. Learn more.

Hourly Observations for April 4, 2019

Temp ( °F °C ) Dew Point ( °F °C ) Humidity (%) Winds ( mph kmh ) Pressure ( in mb ) Visibility ( mi km ) Precip ( " mm )
12:15 am 00:15 Cloudy 42 5.8 42 5.6 99 99 NE 16 26 30.03 1017 7 11.26538 0 0
12:35 am 00:35 Cloudy 42 5.8 42 5.7 99 99 NE 17 28 30.03 1017 7 11.26538 0 0
12:55 am 00:55 Cloudy 42 5.8 42 5.7 99 99 NE 16 26 30.04 1017 7 11.26538 0 0
1:15 am 01:15 Cloudy 42 5.8 42 5.7 99 99 NE 14 22 30.04 1017 7 11.26538 0 0
1:35 am 01:35 Cloudy 42 5.8 42 5.7 99 99 NE 15 24 30.04 1017 10 16.0934 0 0
1:55 am 01:55 Cloudy 42 5.7 42 5.6 99 99 NE 15 24 30.05 1018 10 16.0934 0 0
2:15 am 02:15 Cloudy 42 5.6 42 5.5 99 99 NE 13 20 30.04 1017 7 11.26538 0 0
2:35 am 02:35 Cloudy 42 5.5 42 5.5 100 100 NNE 13 20 30.05 1018 7 11.26538 0 0
2:55 am 02:55 Cloudy 42 5.5 42 5.4 99 99 NNE 13 20 30.04 1017 10 16.0934 0 0
3:15 am 03:15 Cloudy 42 5.3 42 5.3 100 100 NE 12 19 30.06 1018 10 16.0934 0 0
3:35 am 03:35 Cloudy 41 5.1 41 5.1 100 100 NNE 12 19 30.06 1018 7 11.26538 0 0
3:55 am 03:55 Cloudy 41 5.1 41 5.1 100 100 NNE 10 17 30.09 1019 7 11.26538 0 0
4:15 am 04:15 Cloudy 41 5.1 41 5.1 100 100 NNE 10 17 30.08 1019 7 11.26538 0 0
4:35 am 04:35 Cloudy 41 5 41 5 100 100 NNE 13 20 30.07 1018 7 11.26538 0 0
4:55 am 04:55 Cloudy with Mist and Fog 41 4.8 41 4.8 100 100 NNE 12 19 30.07 1018 5 8.0467 0 0
5:15 am 05:15 Cloudy with Mist and Fog 40 4.6 40 4.6 100 100 N 13 20 30.07 1018 5 8.0467 0 0
5:35 am 05:35 Cloudy with Mist and Fog 40 4.6 40 4.6 100 100 NNE 13 20 30.08 1019 5 8.0467 0 0
5:55 am 05:55 Cloudy with Mist and Fog 40 4.5 40 4.5 100 100 NNE 13 20 30.08 1019 3 4.82802 0 0
6:15 am 06:15 Cloudy with Mist and Fog 40 4.5 40 4.5 100 100 NNE 12 19 30.09 1019 1 1.60934 0 0
6:35 am 06:35 Cloudy with Mist and Fog 40 4.5 40 4.5 100 100 NNE 12 19 30.09 1019 2.5 4.02335 0 0
6:55 am 06:55 Cloudy with Mist and Fog 40 4.4 40 4.4 100 100 NNE 10 17 30.1 1019 1.5 2.41401 0 0
7:15 am 07:15 Cloudy with Mist and Fog 40 4.3 40 4.3 100 100 NNE 12 19 30.1 1019 1.75 2.816345 0 0
7:35 am 07:35 Cloudy with Mist and Fog 40 4.2 40 4.2 100 100 NNE 12 19 30.12 1020 2.5 4.02335 0 0
7:55 am 07:55 Cloudy with Mist and Fog 40 4.3 40 4.3 100 100 NE 9 15 30.12 1020 1.25 2.011675 0 0
8:15 am 08:15 Cloudy with Mist and Fog 40 4.2 40 4.2 100 100 NE 7 11 30.13 1020 1.25 2.011675 0 0
8:35 am 08:35 Cloudy with Mist and Fog 40 4.3 40 4.3 100 100 NNE 8 13 30.13 1020 1.5 2.41401 0 0
8:55 am 08:55 Cloudy with Mist and Fog 40 4.4 40 4.4 100 100 NNE 7 11 30.13 1020 1 1.60934 0 0
9:15 am 09:15 Cloudy with Mist and Fog 40 4.5 40 4.5 100 100 N 6 9 30.14 1021 1 1.60934 0 0
9:35 am 09:35 Cloudy with Mist and Fog 40 4.5 40 4.5 100 100 N 6 9 30.15 1021 1.75 2.816345 0 0
9:55 am 09:55 Cloudy with Mist and Fog 40 4.5 40 4.5 100 100 N 6 9 30.15 1021 2 3.21868 0 0
10:15 am 10:15 Cloudy with Mist and Fog 40 4.6 40 4.6 100 100 N 6 9 30.15 1021 2.5 4.02335 0 0
10:35 am 10:35 Cloudy with Mist and Fog 41 5 41 5 100 100 N 6 9 30.15 1021 4 6.43736 0 0
10:55 am 10:55 Cloudy with Mist and Fog 41 5 41 5 100 100 N 6 9 30.15 1021 3 4.82802 0 0
11:15 am 11:15 Cloudy with Mist and Fog 42 5.5 42 5.5 100 100 NNE 7 11 30.14 1021 5 8.0467 0 0
11:35 am 11:35 Cloudy 42 5.7 42 5.4 98 98 N 5 7 30.14 1021 7 11.26538 0 0
11:55 am 11:55 Cloudy 43 6 42 5.5 97 97 N 5 7 30.14 1021 10 16.0934 0 0
12:15 pm 12:15 Cloudy 43 6.3 42 5.4 94 94 N 3 6 30.14 1021 10 16.0934 0 0
12:35 pm 12:35 Cloudy 44 6.9 42 5.8 93 93 N 5 7 30.12 1020 10 16.0934 0 0
12:55 pm 12:55 Cloudy 46 8 43 6.1 88 88 NNE 3 6 30.1 1019 10 16.0934 0 0
1:15 pm 13:15 Mostly Cloudy 48 8.8 43 6.1 83 83 ENE 3 6 30.09 1019 10 16.0934 0 0
1:35 pm 13:35 Partly Cloudy 49 9.3 43 6.1 81 81 N 3 6 30.08 1019 10 16.0934 0 0
1:55 pm 13:55 Sunny 50 10 44 6.4 79 79 N 6 9 30.07 1018 10 16.0934 0 0
2:15 pm 14:15 Sunny 52 11.2 44 6.8 75 75 W 3 6 30.06 1018 10 16.0934 0 0
2:35 pm 14:35 Sunny 53 11.4 44 6.6 73 73 Calm 30.04 1017 10 16.0934 0 0
2:55 pm 14:55 Sunny 55 12.9 44 6.9 67 67 S 3 6 30.02 1016 10 16.0934 0 0
3:15 pm 15:15 Sunny 56 13.2 44 6.7 65 65 SE 5 7 30.01 1016 10 16.0934 0 0
3:35 pm 15:35 Sunny 56 13.3 44 6.8 65 65 Calm 29.99 1016 10 16.0934 0 0
3:55 pm 15:55 Sunny 58 14.5 45 7 61 61 SW 5 7 29.98 1015 10 16.0934 0 0
4:15 pm 16:15 Sunny 59 14.8 45 7 60 60 SSW 3 6 29.97 1015 10 16.0934 0 0
4:35 pm 16:35 Sunny 59 15 44 6.9 59 59 SE 3 6 29.97 1015 10 16.0934 0 0
4:55 pm 16:55 Sunny 60 15.5 44 6.9 57 57 Calm 29.95 1014 10 16.0934 0 0
5:15 pm 17:15 Sunny 61 16.1 44 6.9 55 55 SE 6 9 29.95 1014 10 16.0934 0 0
5:35 pm 17:35 Sunny 62 16.5 44 6.9 53 53 S 6 9 29.95 1014 10 16.0934 0 0
5:55 pm 17:55 Sunny 62 16.5 44 6.4 51 51 S 6 9 29.95 1014 10 16.0934 0 0
6:15 pm 18:15 Sunny 61 16.2 43 6.3 52 52 SSW 3 6 29.95 1014 10 16.0934 0 0
6:35 pm 18:35 Sunny 61 16.1 44 6.5 53 53 S 6 9 29.95 1014 10 16.0934 0 0
6:55 pm 18:55 Sunny 60 15.7 44 6.5 55 55 SSW 9 15 29.95 1014 10 16.0934 0 0
7:15 pm 19:15 Sunny 59 15.1 44 6.4 56 56 S 5 7 29.96 1015 10 16.0934 0 0
7:35 pm 19:35 Sunny 57 13.9 44 6.8 63 63 S 5 7 29.97 1015 10 16.0934 0 0
7:55 pm 19:55 Sunny 55 12.9 44 6.7 66 66 S 5 7 29.98 1015 10 16.0934 0 0
8:15 pm 20:15 Clear 53 11.5 44 6.5 72 72 SSE 5 7 29.99 1016 10 16.0934 0 0
8:35 pm 20:35 Clear 52 11.1 44 6.5 74 74 SSE 6 9 29.99 1016 10 16.0934 0 0
8:55 pm 20:55 Clear 51 10.8 44 6.5 75 75 SSE 6 9 30.01 1016 10 16.0934 0 0
9:15 pm 21:15 Clear 50 10 43 6.3 78 78 SSE 7 11 30.01 1016 10 16.0934 0 0
9:35 pm 21:35 Clear 49 9.7 43 6.2 79 79 SSE 5 7 30.02 1016 10 16.0934 0 0
9:55 pm 21:55 Clear 49 9.3 43 6 80 80 SSE 5 7 30.03 1017 10 16.0934 0 0
10:15 pm 22:15 Clear 48 9.1 43 6 81 81 SSE 6 9 30.03 1017 10 16.0934 0 0
10:35 pm 22:35 Clear 48 9 43 6 82 82 SSE 6 9 30.03 1017 10 16.0934 0 0
10:55 pm 22:55 Clear 46 8 42 5.4 84 84 SSE 8 13 30.04 1017 10 16.0934 0 0
11:15 pm 23:15 Clear 47 8.3 42 5.6 83 83 SSE 6 9 30.04 1017 10 16.0934 0 0
11:35 pm 23:35 Clear 44 6.6 41 5.1 90 90 SE 8 13 30.04 1017 10 16.0934 0 0
11:55 pm 23:55 Clear 44 6.6 42 5.5 93 93 SE 7 11 30.04 1017 10 16.0934 0 0

Powered by AerisWeather